Preview of NWS' New Version of Forecast
This preview is not operational and should not be used for support decisions.

Regional Weather Roundup (RWR)

Issued by National Weather Service (NWS)

                            
000
ASUS43 KTOP 190108
RWRKS 

WEATHER ROUNDUP FOR KANSAS
NATIONAL WEATHER SERVICE GOODLAND KS
800 PM CDT THU APR 18 2019

NOTE:  "FAIR" INDICATES FEW OR NO CLOUDS BELOW 12,000 FEET WITH NO
SIGNIFICANT WEATHER AND/OR OBSTRUCTIONS TO VISIBILITY.

KSZ001>006-013>018-027>032-041>047-190200-
NORTHWEST KANSAS
  
CITY           SKY/WX    TMP DP  RH WIND       PRES   REMARKS
GOODLAND       MOCLDY    52  28  39 N22G33    30.10R                  
HAYS           CLEAR     54  35  48 N17       30.03R                  
HILL CITY      CLEAR     54  34  46 N24G38    30.06R                  
RUSSELL        PTCLDY    55  34  45 N21G30    29.99R                  
$$

KSZ061>065-074>080-084>089-190200-
SOUTHWEST KANSAS
  
CITY           SKY/WX    TMP DP  RH WIND       PRES   REMARKS
DODGE CITY     PTCLDY    54  29  38 N17G28    30.05R                  
ELKHART        CLEAR     60  32  35 N20G25    30.09S                  
GARDEN CITY    LGT RAIN  53  36  52 N26G35    30.09R                  
GREAT BEND       N/A     53  36  52 NW15      30.00R                  
LIBERAL        PTCLDY    55  33  43 N20G28    30.09R                  
PRATT          MOCLDY    56  35  46 N22G36    30.00R                  
$$

KSZ066>073-081>083-090>101-190200-
SOUTHEAST KANSAS
  
CITY           SKY/WX    TMP DP  RH WIND       PRES   REMARKS
CHANUTE        MOCLDY    59  40  49 N6        29.84R                  
COFFEYVILLE    PTCLDY    59  40  49 N9        29.83R                  
HUTCHINSON     MOCLDY    58  33  39 N18G31    29.95R                  
MEDICINE LODGE   N/A     57  36  45 N16G25    29.96R                  
NEWTON         MOCLDY    54  39  57 NW26G37   29.94R                  
PARSONS          N/A     59  39  47 N7        29.85R                  
WICHITA INTL   MOCLDY    58  38  47 N8        29.92R                  
WICHITA JABRA  PTCLDY    52  40  63 N8        29.92R                  
WICHITA MCCONL CLEAR     54  40  58 N9        29.91S                  
WINFIELD       PTCLDY    54  43  66 N8        29.92R                  
$$

KSZ007>012-019>026-033>040-048>060-102>105-190200-
NORTHEAST KANSAS
  
CITY           SKY/WX    TMP DP  RH WIND       PRES   REMARKS
CONCORDIA        N/A    N/A N/A N/A MISG      29.94R                  
EMPORIA        MOCLDY    57  35  43 N10       29.87R                  
LAWRENCE       CLEAR     58  37  45 N9        29.86R                  
MANHATTAN      MOCLDY    59  34  39 N5        29.90R                  
MARYSVILLE     PTCLDY    55  36  47 N18       29.92R                  
OLATHE IND     CLEAR     54  40  59 N13       29.86R                  
OLATHE EXE     CLEAR     55  37  50 N15       29.85R                  
SALINA         CLOUDY    52  41  66 N8        29.95S                  
TOPEKA BILLARD PTCLDY    58  35  42 N12       29.86R                  
TOPEKA FORBES  MOCLDY    59  35  40 N13G23    29.86R                  
$$